Wind_Speed
13 13 11 9 8 8 7 7 7 8 8 8 8 8 9 9 9 8 7 7 8 9 9 8 7 8 8 8 9 9 9 9 9 8 6 6 6 5 4 4 2 2 5 3 2 3 1 2 2 3 3 2 3 5 6 7 8 9 8 6 5 7 7
15 14 11 10 9 8 7 6 7 7 7 8 9 8 9 9 8 8 8 8 10 11 10 9 8 7 8 8 8 9 9 9 9 9 9 9 8 6 3 3 4 4 8 5 3 4 3 2 1 2 2 3 3 5 6 6 8 9 8 8 8 8 9
16 14 13 12 10 8 7 6 6 7 6 7 9 8 8 8 8 8 8 8 9 10 10 8 8 8 8 9 9 9 9 8 8 9 10 11 9 6 7 5 3 2 4 3 2 3 2 2 2 3 5 4 4 5 6 7 8 9 9 10 12 12 13
17 15 15 14 11 10 8 7 6 7 7 7 8 8 8 8 7 7 7 8 8 8 8 7 7 7 8 8 9 9 9 9 9 9 8 9 8 6 8 9 9 7 6 6 5 4 4 2 1 3 5 5 7 7 5 5 6 8 10 11 13 14 15
18 16 16 15 13 12 10 8 8 7 8 7 7 8 7 7 6 7 7 6 7 7 7 6 6 7 7 7 7 8 8 8 8 8 7 8 8 8 8 8 8 8 9 10 9 9 9 8 6 4 7 8 5 5 4 3 5 7 8 8 8 10 11
18 16 16 15 13 12 11 10 10 9 9 8 8 8 8 7 6 6 6 5 5 6 6 6 6 6 6 7 7 7 7 8 8 8 8 8 8 8 7 7 8 9 9 9 8 8 7 7 8 5 9 12 8 8 8 5 8 9 9 8 5 5 8
17 16 15 15 14 13 12 11 10 11 11 10 9 9 9 8 7 6 6 5 5 5 5 6 6 6 6 6 7 7 6 7 7 7 7 7 7 7 7 7 7 7 7 7 7 7 6 7 8 8 8 10 9 10 10 10 10 9 8 8 6 4 7
17 16 15 15 14 13 12 12 11 10 11 11 10 10 9 9 8 7 7 6 6 5 5 5 5 6 7 6 6 6 6 6 6 6 7 7 7 7 7 7 6 6 5 6 6 7 7 7 6 6 6 5 7 7 7 11 12 6 4 4 6 4 3
17 16 14 14 15 13 11 12 12 9 10 11 11 11 11 10 9 9 8 7 7 6 5 5 5 5 6 5 5 6 5 5 5 5 5 6 6 6 6 7 6 5 5 5 5 5 6 5 5 5 4 3 3 4 4 7 9 10 16 15 6 6 10
17 17 15 13 15 14 11 10 11 10 9 9 11 13 12 11 11 10 10 10 9 8 7 7 6 6 6 6 5 5 5 5 5 4 4 4 5 5 5 6 5 4 5 5 4 5 5 5 6 5 6 4 2 2 3 4 5 7 14 17 14 14 17
16 15 14 13 13 14 12 9 9 10 10 9 9 12 13 12 12 12 11 11 11 11 10 9 8 7 7 7 6 6 7 6 5 4 5 4 4 4 3 4 5 3 4 4 3 5 5 6 6 5 6 6 5 4 4 3 4 7 12 16 15 15 18
14 13 12 11 11 12 12 10 9 10 11 11 10 12 13 13 13 14 13 13 13 12 12 10 10 9 8 8 8 7 8 8 6 6 5 4 4 4 3 4 4 3 2 3 3 3 4 4 4 5 5 6 6 6 6 4 3 6 11 15 15 16 17
13 12 11 11 9 10 11 10 10 9 11 12 12 13 14 14 15 15 15 14 14 14 14 12 12 11 10 10 9 9 10 9 9 9 7 6 5 5 4 3 3 1 2 3 3 2 3 3 3 4 3 3 3 3 5 6 4 7 12 14 15 15 15
11 11 11 12 10 10 11 11 13 12 12 13 13 14 15 15 15 16 16 16 15 15 15 14 14 13 12 12 11 11 11 10 10 10 10 8 7 6 5 4 4 3 1 3 2 2 3 3 4 5 4 2 3 3 4 6 6 8 12 14 14 15 15
10 11 12 13 12 12 12 12 14 14 15 14 14 14 15 15 16 17 17 16 16 16 15 15 15 15 14 14 14 13 13 13 12 11 12 11 10 9 8 6 5 5 3 1 1 2 3 3 4 5 5 4 5 6 5 8 9 10 12 15 16 16 16
11 12 13 13 13 14 15 15 15 16 17 16 15 16 17 17 18 18 18 18 17 16 16 15 16 16 16 15 15 15 14 14 14 13 14 13 12 12 11 9 7 6 5 3 2 1 2 2 2 4 5 5 6 8 8 9 10 11 13 16 16 16 16
10 11 12 12 11 12 15 16 17 18 18 18 18 18 18 19 19 19 20 19 18 18 18 17 17 18 17 16 16 15 15 15 15 14 14 14 13 13 13 10 8 8 7 5 4 3 2 2 2 3 5 6 7 8 8 8 9 11 13 15 15 16 16
8 9 10 11 10 11 12 12 13 15 16 17 19 20 20 21 20 20 20 20 20 20 19 19 19 19 18 16 16 16 16 16 15 15 15 14 13 12 13 11 9 8 8 7 5 4 4 3 3 3 4 6 7 8 9 9 10 12 14 16 18 18 18
7 8 10 11 12 11 11 10 10 12 14 16 18 19 19 17 16 17 17 17 19 20 21 20 20 19 18 17 17 16 16 16 15 15 15 14 13 13 12 11 10 9 8 7 6 5 5 4 3 4 5 6 7 9 10 11 12 13 15 17 18 19 20
4 6 8 10 11 11 10 11 14 18 20 21 20 19 18 15 15 17 18 18 20 22 21 19 18 18 19 18 17 17 16 16 15 15 15 14 13 13 12 11 10 9 9 8 7 6 5 5 4 4 5 6 7 9 10 11 12 13 15 16 17 18 18
1 1 3 6 8 8 8 12 18 24 24 23 23 22 21 20 19 19 21 23 23 21 19 17 17 19 19 19 19 18 18 17 16 15 14 14 13 12 12 11 10 9 9 9 8 8 7 7 6 7 9 9 9 10 11 12 13 13 15 16 17 17 18
1 1 3 4 6 6 8 12 16 19 20 21 21 21 22 22 21 21 23 24 23 19 17 18 22 22 21 19 19 18 18 18 16 15 14 13 13 12 11 11 10 9 10 10 11 11 10 9 10 11 11 11 11 10 11 12 12 13 14 15 16 16 16
2 3 4 5 6 7 8 11 13 13 13 15 16 18 20 21 21 21 22 23 22 19 18 21 26 27 24 20 18 18 19 19 17 14 14 13 12 12 11 10 10 11 12 13 13 13 12 12 11 11 10 10 11 11 12 13 13 14 14 15 15 16 16
3 3 4 5 5 6 7 9 11 11 11 11 12 14 16 17 19 20 20 21 21 20 21 23 25 27 26 22 19 18 18 18 16 14 14 14 13 12 11 10 10 11 12 12 12 11 10 10 10 11 12 12 12 12 13 14 15 15 15 15 16 16 16
4 4 4 5 5 6 7 7 9 10 10 10 11 12 13 14 16 17 18 19 20 21 23 24 23 24 24 22 20 18 16 16 16 14 14 13 12 12 11 10 10 10 9 9 9 9 9 11 12 14 14 14 13 13 14 15 16 17 17 17 17 17 17
5 5 5 5 6 7 7 8 9 10 10 10 11 13 15 15 16 17 17 18 19 19 20 23 22 22 25 23 19 17 15 13 14 14 13 13 12 11 10 10 10 9 8 8 9 10 10 11 12 12 12 12 13 14 15 16 18 20 21 21 20 19 18
6 6 6 6 7 7 8 9 9 10 11 12 12 13 14 16 17 17 18 18 19 17 17 18 18 21 26 24 18 17 15 12 13 14 12 12 12 11 10 9 8 8 8 9 9 9 9 9 9 9 9 10 12 13 14 16 17 19 22 24 25 25 23
6 6 6 7 8 9 10 10 11 11 11 12 13 13 14 14 15 17 18 19 19 18 17 16 16 19 23 22 19 19 17 14 15 13 12 12 12 11 10 8 8 9 9 10 11 11 11 11 12 12 13 13 14 15 16 17 18 19 20 22 24 25 25
6 7 7 8 9 10 11 11 11 11 12 13 13 14 15 16 16 16 17 18 18 17 14 14 17 19 20 20 20 19 17 17 16 14 11 11 10 9 8 8 9 10 10 11 12 12 12 13 15 16 16 16 16 17 18 17 18 18 19 21 22 23 24
8 8 9 9 10 11 11 11 11 12 12 13 13 14 15 16 17 17 17 16 16 15 12 12 15 17 18 20 20 17 14 14 14 11 8 8 8 8 8 9 10 10 10 11 13 14 14 16 18 18 17 17 17 17 17 17 17 18 19 20 21 22 23
10 10 10 10 11 11 11 12 12 12 13 14 14 14 15 16 16 15 14 13 13 13 12 12 14 17 19 20 19 15 11 10 8 6 6 6 7 7 8 9 10 10 11 13 15 17 17 17 17 15 15 15 16 17 17 18 18 18 18 18 20 21 22
11 11 11 12 13 12 12 13 13 13 13 13 13 14 14 13 9 5 4 7 9 10 11 14 17 19 19 18 16 13 10 8 5 3 3 3 3 4 5 7 8 10 12 15 17 16 16 14 13 12 13 14 15 17 18 17 17 18 20 22 23 24 24
12 13 13 13 12 12 13 13 13 13 13 12 13 13 9 4 1 3 4 5 6 8 12 17 18 19 19 18 16 14 12 9 6 3 1 0 2 5 6 8 11 12 12 14 15 13 12 12 12 13 14 15 17 18 19 21 22 24 26 28 28 29 29
13 13 13 13 12 12 12 12 12 12 12 12 13 9 3 2 5 7 7 6 8 11 15 18 18 18 18 17 16 14 13 9 6 2 1 2 5 7 8 10 13 12 9 9 10 10 11 12 14 16 18 20 21 22 23 25 26 26 26 27 27 26 25
15 15 15 14 14 13 12 12 12 12 11 12 10 4 4 6 8 10 10 9 11 15 16 17 18 18 17 15 14 12 9 6 2 2 4 6 7 8 8 10 11 9 7 8 11 12 15 18 20 22 22 21 20 20 20 22 23 22 22 21 21 20 19
15 15 16 16 15 15 14 14 13 11 12 13 9 3 7 9 10 11 12 12 14 16 17 16 16 16 14 12 9 7 5 3 3 4 5 7 8 8 8 9 10 10 11 14 17 18 20 22 22 20 18 16 17 17 18 20 21 21 20 20 19 19 18
14 14 15 16 16 16 16 15 13 12 13 13 8 7 9 10 12 13 13 14 15 16 16 14 12 11 9 7 5 4 3 2 2 2 3 4 5 6 8 9 12 14 17 20 21 20 19 17 16 14 14 15 16 18 19 21 21 20 19 19 19 19 18
Wind_Direction
140 130 128 128 121 116 116 107 101 97 88 86 86 85 84 82 83 78 67 60 58 73 78 63 53 51 52 45 38 42 43 45 47 54 86 107 110 120 146 154 114 150 181 180 123 127 166 243 301 10 12 330 285 262 265 264 267 279 285 280 272 261 258
137 136 138 136 131 129 125 116 113 108 99 96 95 94 94 90 87 81 72 60 55 65 76 73 64 59 60 57 54 52 47 45 43 45 54 54 65 82 96 182 178 163 171 183 190 167 173 224 271 309 309 328 314 268 259 260 260 268 272 262 255 255 255
142 148 147 143 142 140 135 129 125 119 113 109 106 106 104 99 93 86 80 73 65 67 74 73 68 65 64 61 60 59 57 57 51 51 56 52 55 57 35 29 35 99 154 174 201 188 202 218 223 260 258 255 256 257 255 256 261 260 266 272 269 266 264
152 157 150 149 152 150 149 148 144 136 129 125 121 119 115 111 108 99 91 86 81 79 78 78 77 72 67 64 62 59 60 62 59 57 60 57 56 53 44 38 34 37 39 34 35 30 16 360 326 287 288 273 243 250 257 252 274 274 272 282 282 277 274
160 162 154 158 162 160 162 161 159 151 143 142 137 135 133 127 121 112 107 99 95 92 86 86 90 87 84 79 73 67 65 66 67 69 69 65 63 59 57 47 39 44 39 35 35 31 27 13 352 318 328 333 287 281 304 251 277 285 272 277 287 286 278
165 165 161 165 169 168 170 170 170 165 159 160 157 156 153 146 143 126 118 116 109 109 109 105 101 98 96 94 89 81 77 74 69 70 69 65 66 63 60 50 46 51 45 39 35 33 35 14 0 347 340 347 342 328 323 278 263 268 265 273 293 295 274
169 170 167 171 175 176 177 177 179 177 172 172 171 173 170 160 158 147 139 146 133 122 122 119 118 118 113 107 105 99 91 86 81 79 77 71 69 67 68 63 56 57 49 40 32 23 33 32 23 19 357 345 340 326 315 301 278 250 239 251 256 264 256
174 175 172 175 180 181 184 184 186 188 181 179 179 182 182 173 169 167 164 164 154 145 140 131 131 127 122 123 123 116 109 107 105 93 83 82 79 75 80 80 70 62 56 50 41 28 35 42 29 21 14 353 343 329 320 325 317 316 352 292 226 219 253
178 180 181 182 184 187 192 187 188 196 190 184 184 187 188 181 179 179 175 178 172 166 161 146 146 145 137 141 140 131 128 120 108 96 86 82 82 84 86 85 81 73 62 51 44 42 41 33 25 20 15 10 1 338 327 337 335 352 6 1 344 355 10
179 181 185 188 185 187 196 194 191 199 200 194 187 189 194 188 188 190 184 188 185 178 181 167 164 171 157 157 162 149 146 140 124 121 117 97 90 95 85 83 93 84 67 53 32 43 48 36 36 25 0 358 6 331 327 338 332 334 347 352 352 350 354
184 183 186 191 185 183 192 198 197 201 205 206 197 194 199 194 194 197 193 197 195 188 190 181 178 185 170 166 174 165 162 160 153 147 138 128 123 112 91 92 97 75 58 54 33 38 43 36 33 16 359 359 356 353 354 333 318 323 332 339 341 338 337
187 186 185 188 184 181 188 195 203 209 209 212 211 205 203 201 203 204 201 203 202 198 197 189 188 190 180 180 184 179 180 176 166 166 162 158 153 133 117 108 95 78 65 54 40 34 20 13 18 15 11 4 354 355 349 326 296 308 322 327 327 327 329
189 193 190 190 189 185 189 198 209 219 219 216 217 216 211 208 211 211 209 210 208 205 202 197 196 195 188 192 196 192 191 185 176 180 181 173 167 163 159 144 133 139 87 62 55 37 360 337 331 338 349 351 337 320 310 305 286 293 307 312 315 319 320
186 195 196 194 200 200 201 211 217 226 236 230 222 221 218 215 218 219 216 214 214 211 207 202 200 199 196 198 200 199 199 192 186 189 186 178 176 180 179 170 180 202 117 71 55 353 341 329 310 302 288 285 301 287 285 294 291 294 301 303 306 309 309
195 203 206 204 211 213 213 220 221 227 238 239 234 230 225 222 223 225 223 221 220 217 212 209 206 203 203 205 203 203 204 197 194 197 193 187 186 185 184 185 181 180 174 164 259 323 337 342 342 328 317 317 316 311 306 304 305 305 302 303 304 302 300
202 208 209 208 214 218 221 225 225 227 233 235 238 239 233 229 227 227 227 225 224 222 217 214 212 208 208 211 210 207 207 202 200 203 199 193 194 190 187 190 188 183 191 202 221 258 299 305 320 326 323 322 315 306 298 293 291 288 287 292 296 298 299
216 221 217 211 218 228 232 233 229 231 234 233 236 240 238 235 231 231 231 228 226 226 222 218 216 213 212 216 218 214 211 208 206 210 205 199 200 196 188 188 190 193 198 196 204 229 247 262 277 301 311 311 308 306 306 300 291 286 286 291 294 296 298
228 237 233 227 235 244 245 247 241 236 238 242 244 244 243 242 238 235 234 231 231 231 229 226 221 215 213 217 222 222 219 214 212 215 212 205 205 200 188 187 192 193 195 194 201 217 223 229 253 281 295 298 300 303 303 301 298 295 294 294 294 294 295
223 230 228 224 230 236 240 254 260 246 237 240 247 249 248 253 263 263 256 250 247 242 236 233 228 221 217 219 222 225 225 222 218 218 216 208 207 201 188 188 194 195 196 200 203 208 219 233 250 268 282 291 294 297 297 296 295 292 290 289 289 290 291
235 237 234 229 234 239 239 244 251 247 237 233 240 251 254 256 266 269 263 258 258 257 251 243 237 233 226 222 222 223 226 227 224 222 218 210 207 202 194 192 196 198 200 203 209 215 222 226 233 252 270 281 286 291 294 294 294 291 290 289 288 288 288
135 231 257 245 244 249 247 242 242 244 245 241 242 252 255 249 246 247 245 242 246 259 269 262 250 246 239 229 224 221 221 223 224 223 218 211 207 201 197 197 197 199 204 209 214 214 210 216 239 260 266 269 275 285 292 293 293 291 289 287 286 286 288
177 253 270 256 247 241 238 242 243 245 251 253 251 253 254 250 248 247 245 243 243 251 263 256 245 246 248 238 225 220 219 217 218 220 215 209 206 200 196 196 198 204 211 215 215 213 219 242 268 276 276 274 273 276 284 288 289 291 292 291 290 292 293
255 258 262 258 256 247 234 235 240 246 257 263 260 257 254 251 251 250 249 249 249 246 245 244 239 242 249 243 230 227 222 212 209 213 211 206 202 200 198 199 204 213 219 224 230 236 248 263 273 276 276 278 276 274 276 280 282 286 291 292 292 295 296
280 277 278 273 270 267 257 247 242 242 250 261 264 262 259 255 254 257 256 254 253 250 247 247 244 244 244 238 234 236 223 204 200 206 207 204 200 200 200 201 212 223 229 236 246 257 271 278 281 284 286 285 282 276 274 274 275 278 280 282 284 287 289
290 288 289 290 288 285 283 279 270 261 254 253 254 254 256 256 254 256 257 255 253 251 248 246 245 242 237 233 239 242 220 195 194 200 201 199 196 198 202 206 216 225 230 238 248 262 277 283 285 288 291 290 286 280 274 271 271 272 272 272 274 275 278
287 285 284 288 292 293 289 285 285 284 281 274 263 250 247 249 250 249 251 252 252 251 247 244 244 242 235 233 236 231 211 190 186 190 194 194 192 198 205 209 216 223 231 244 254 264 272 277 283 291 295 291 285 283 280 276 273 272 270 267 265 266 270
287 287 288 288 289 287 283 281 282 284 284 283 279 268 258 252 248 248 249 250 254 257 250 243 247 245 236 230 223 213 204 191 183 185 192 194 196 203 208 211 217 228 242 254 261 265 266 267 273 286 296 296 291 290 288 286 284 280 274 268 264 264 268
282 285 286 287 285 280 277 278 280 278 277 277 278 279 275 267 259 253 249 248 252 257 252 242 241 240 233 225 217 207 198 186 184 188 193 196 199 205 213 220 231 241 252 260 262 261 262 262 264 273 284 290 289 287 285 286 287 286 283 278 274 272 272
282 282 282 281 280 280 277 276 276 274 274 274 273 275 276 274 270 262 254 249 251 254 250 239 234 232 226 217 208 201 189 178 179 185 191 200 207 213 223 233 241 249 258 263 263 263 264 266 271 279 287 288 286 284 283 284 283 280 281 282 281 280 279
283 280 280 278 277 278 279 279 279 276 275 274 272 272 273 272 271 267 259 250 246 245 240 229 221 215 207 200 193 187 178 174 177 186 201 215 220 226 237 243 247 252 258 263 268 271 272 274 277 282 286 285 285 285 286 288 287 284 282 282 282 283 283
289 285 282 280 280 281 279 278 277 275 275 276 274 275 278 278 277 274 260 240 231 231 222 206 196 190 188 189 186 179 173 175 182 200 219 223 225 236 252 260 260 261 262 267 272 275 275 276 277 278 279 282 284 286 288 292 293 291 288 284 283 281 280
287 283 280 277 276 278 279 278 276 274 274 276 277 277 280 281 282 279 238 208 208 211 195 178 177 180 181 182 179 170 162 163 168 183 209 221 238 260 276 291 293 286 274 269 271 270 268 269 270 272 276 282 286 288 290 292 291 291 291 289 288 286 284
279 278 274 270 269 270 271 270 270 271 272 272 275 279 281 279 151 115 133 160 172 179 174 167 170 177 179 179 178 169 154 144 136 129 143 274 299 291 293 300 298 291 279 270 269 270 270 273 277 279 282 284 285 286 287 287 287 290 293 293 291 290 288
279 280 278 274 270 268 268 268 268 271 273 272 273 273 261 142 131 124 129 146 152 158 165 166 167 173 176 175 175 169 154 139 129 132 201 264 280 286 294 297 292 286 279 273 272 277 283 288 293 295 295 293 291 290 291 292 293 295 296 294 292 290 288
280 280 277 274 269 265 265 267 270 273 275 277 275 251 145 138 136 128 128 140 148 153 160 165 167 171 173 172 171 172 166 157 168 238 258 270 279 284 293 298 292 283 283 292 295 296 300 304 306 306 305 304 303 302 302 300 300 300 299 297 295 293 291
276 276 275 271 264 259 257 259 265 270 270 273 269 195 139 132 127 124 125 133 146 154 159 164 169 173 175 175 174 179 184 189 220 246 262 277 280 277 283 294 296 294 299 306 308 307 308 309 309 309 309 309 308 307 303 299 297 295 293 292 290 289 288
276 275 277 275 269 265 260 255 254 253 255 259 242 164 139 133 130 128 128 132 143 153 157 160 166 168 166 164 164 170 180 182 214 258 291 311 303 287 283 287 289 290 294 298 301 305 307 307 306 308 310 309 307 304 298 294 291 288 285 284 281 279 278
Height
796 798 800 802 803 804 805 806 806 807 808 809 810 811 811 811 811 812 811 811 811 811 811 812 812 812 812 812 812 812 813 813 814 814 815 816 817 818 819 819 819 819 820 822 822 821 824 825 823 821 820 819 819 819 820 820 820 821 821 821 822 823 823
796 798 800 801 803 804 805 806 807 808 809 809 810 811 812 812 812 812 812 812 812 812 812 813 813 813 813 813 813 814 814 814 815 815 815 816 817 818 819 820 819 819 820 822 821 820 821 823 823 821 820 819 819 819 819 819 820 820 820 820 821 822 823
796 797 799 801 803 804 805 806 807 808 809 810 811 811 812 813 813 813 813 813 813 813 814 814 814 814 814 814 815 815 815 816 816 816 816 817 818 818 819 819 819 820 821 821 820 820 821 822 822 820 819 819 818 818 818 818 819 819 819 819 820 820 821
795 797 799 800 802 804 805 806 807 808 809 810 811 812 812 813 813 814 814 814 814 814 815 815 815 815 815 815 816 816 816 817 817 818 818 818 819 819 819 819 820 821 821 821 821 821 821 821 821 820 818 817 817 816 816 816 817 817 817 818 818 819 819
795 796 798 800 802 803 804 806 807 808 809 810 811 812 812 813 813 814 814 815 815 815 815 816 816 816 816 817 817 817 817 818 818 818 819 819 820 820 820 821 821 821 821 822 822 822 822 822 822 821 819 818 817 816 816 816 816 816 816 816 816 816 817
794 796 797 799 801 802 804 805 806 807 808 809 810 811 812 813 813 814 815 815 815 815 815 816 816 817 817 817 817 818 818 818 819 819 820 820 820 821 821 822 822 822 822 822 823 823 823 823 822 822 821 820 819 817 816 816 815 815 815 815 815 815 816
793 795 797 799 800 802 803 804 805 806 807 808 810 811 811 812 813 814 815 815 815 816 816 816 817 817 818 818 818 818 818 819 819 820 820 821 821 822 822 822 822 823 823 823 823 823 823 823 823 823 823 822 820 819 817 816 814 814 814 814 814 814 815
793 795 796 798 800 801 802 803 805 806 806 808 809 810 811 812 813 814 814 815 815 816 816 816 817 817 818 818 818 819 819 819 820 820 821 821 822 822 822 823 823 823 824 824 823 823 824 824 824 824 824 824 823 821 819 816 814 813 813 813 814 815 815
793 794 796 797 799 801 802 803 805 806 806 807 808 809 810 811 812 813 814 814 815 815 816 816 817 817 818 818 818 819 819 820 820 820 821 821 822 822 822 823 823 824 824 824 824 824 824 824 824 825 825 825 825 824 822 819 816 815 814 814 815 815 816
792 794 795 797 798 800 802 803 804 806 806 807 808 808 809 810 811 812 813 813 814 815 815 816 816 817 817 818 818 819 819 820 820 820 821 821 822 822 823 823 824 824 824 824 824 824 824 825 825 825 825 825 826 826 825 824 821 818 817 817 817 816 816
791 793 795 796 798 799 802 803 804 805 806 807 808 808 809 810 811 811 812 812 813 814 814 815 816 816 817 818 818 819 819 819 820 820 821 821 821 822 822 823 823 823 824 824 824 824 825 825 825 825 826 825 826 826 826 826 824 821 820 819 819 818 817
791 793 794 795 797 798 800 802 803 805 806 807 807 808 808 809 810 810 811 811 812 812 813 814 815 816 816 817 817 818 818 819 819 820 820 820 821 821 822 822 823 823 823 824 824 825 825 825 825 826 826 826 826 826 826 826 826 823 822 821 820 820 819
790 792 793 795 796 797 799 800 802 803 804 805 806 807 807 808 809 809 810 811 811 811 812 813 814 815 815 816 816 817 817 817 818 819 819 820 820 821 821 821 822 822 823 823 824 824 825 825 825 825 825 826 826 826 825 826 825 823 822 822 821 820 820
790 792 793 794 795 796 798 799 800 802 803 804 805 806 806 807 808 809 809 810 810 810 811 812 813 813 814 814 815 816 816 816 817 818 818 819 819 820 820 821 821 822 822 823 823 824 824 824 824 824 825 825 825 825 825 825 824 822 821 822 821 820 820
790 792 792 794 795 796 797 798 799 801 802 803 804 805 805 806 807 808 808 808 809 809 810 810 811 812 813 813 814 814 815 815 816 817 817 818 818 819 820 820 821 821 821 822 822 823 823 823 824 824 824 824 824 825 825 824 824 823 821 821 820 820 819
790 791 791 792 794 795 797 797 798 799 800 802 802 803 804 804 805 805 806 807 807 808 809 809 810 810 811 812 812 813 814 814 815 816 816 816 817 818 819 819 820 820 821 821 822 822 823 823 823 824 824 824 824 824 824 824 824 823 821 820 819 819 818
789 790 790 791 792 795 797 798 798 799 800 801 801 802 802 802 802 803 804 805 805 806 807 807 807 808 809 811 812 812 813 813 814 815 815 816 816 817 818 819 819 820 820 821 821 822 822 822 823 823 823 823 824 823 823 823 823 822 821 819 819 818 817
789 790 790 790 791 793 795 798 799 800 800 801 801 802 802 801 801 802 802 803 804 804 805 805 805 806 807 809 810 811 812 812 813 814 814 815 816 816 817 818 819 819 819 820 820 821 821 821 821 822 822 822 822 822 822 822 822 821 820 819 818 817 816
789 789 789 790 791 792 793 795 798 799 799 799 800 801 800 800 801 802 803 803 804 803 803 804 804 805 805 806 808 809 810 811 812 813 813 814 815 815 815 816 817 818 819 819 820 820 820 820 821 821 821 821 821 821 821 821 821 820 820 818 817 816 815
787 787 788 789 790 790 791 793 797 798 797 796 796 797 797 798 800 802 802 803 803 803 803 803 804 805 804 804 805 807 808 809 811 812 812 813 813 814 814 815 816 817 818 818 819 819 819 820 820 820 820 820 820 820 820 820 820 819 818 817 816 815 813
786 787 787 788 789 789 789 791 794 795 795 793 792 793 795 796 797 798 798 798 799 800 802 803 804 804 803 803 803 803 805 806 808 810 811 812 812 813 813 814 815 816 817 817 818 818 818 819 819 819 819 819 819 819 819 819 818 818 817 816 815 814 812
786 786 786 787 787 788 788 789 790 791 791 790 789 790 792 793 794 794 795 795 796 797 800 803 804 803 802 801 801 801 802 803 805 807 810 811 812 812 813 814 814 815 816 816 817 817 817 818 818 818 818 818 818 818 817 817 817 816 816 815 814 813 811
785 786 786 786 787 787 787 788 789 789 788 787 787 788 789 790 791 791 792 792 794 795 796 799 800 801 801 800 800 800 800 801 802 805 808 809 811 811 812 813 813 814 814 815 816 816 816 816 816 816 817 816 817 816 816 816 815 815 815 814 813 812 811
785 785 785 786 787 787 787 787 787 787 786 786 787 787 788 788 788 789 789 790 791 793 794 795 796 798 799 799 799 799 799 799 800 803 806 808 809 810 811 812 812 812 813 814 814 814 814 814 814 814 815 815 815 815 815 814 814 814 813 812 811 811 810
784 784 785 785 786 786 787 787 786 786 785 785 786 786 787 787 786 786 787 788 789 790 791 792 793 794 795 796 797 798 797 797 798 802 805 807 808 809 810 811 811 811 812 812 812 812 812 812 812 812 813 813 813 813 813 813 812 812 812 811 810 809 808
783 784 784 784 785 786 786 787 786 786 785 785 785 785 785 786 786 786 786 786 787 787 788 789 790 792 792 794 795 796 796 796 798 801 804 806 807 808 809 810 810 810 810 811 811 811 811 811 811 811 811 811 811 811 811 811 810 810 809 809 808 807 807
782 783 783 783 784 785 786 786 786 786 785 785 785 784 784 784 784 785 785 785 785 786 786 786 788 789 790 791 793 794 795 796 798 801 803 804 806 807 807 808 808 809 809 809 809 809 809 809 809 809 809 809 809 809 809 809 808 808 807 806 805 804 804
782 782 782 783 783 784 784 784 785 785 785 785 784 784 783 783 783 783 783 783 784 784 784 785 786 787 788 790 792 792 793 795 798 801 802 803 804 805 806 806 807 807 808 808 807 807 807 807 807 807 807 807 808 808 807 807 806 805 805 804 803 802 802
781 781 782 782 782 783 783 782 783 783 783 783 783 782 782 782 781 781 781 781 782 782 782 784 784 785 787 789 791 791 792 794 796 799 801 802 803 804 805 805 806 806 806 806 805 805 806 806 806 806 806 805 805 805 804 804 804 803 803 802 801 800 799
780 780 780 781 781 781 781 781 781 781 781 781 781 781 781 780 780 780 779 779 779 780 781 782 783 785 786 788 789 790 792 793 795 798 800 801 802 803 804 804 804 805 805 804 804 804 804 804 804 804 803 803 803 802 802 802 801 801 800 800 799 798 797
779 779 779 779 779 779 779 779 779 779 779 779 779 779 779 779 779 778 776 776 776 777 779 781 783 785 786 787 788 790 792 794 796 798 800 801 802 802 803 803 803 803 803 803 802 802 802 802 802 802 802 801 801 800 800 799 799 798 797 796 795 795 794
778 778 778 778 778 778 778 778 778 778 778 778 778 778 778 777 776 775 775 775 775 776 778 780 782 784 786 787 789 790 792 794 796 797 799 800 800 801 801 802 802 802 802 801 800 800 800 800 800 800 800 799 799 798 798 797 796 794 794 793 792 791 790
777 777 777 777 777 777 777 777 777 777 777 777 777 777 776 775 774 774 775 775 776 777 778 780 782 784 785 787 789 789 790 792 794 796 798 798 799 800 800 801 800 800 800 799 799 799 799 799 799 799 798 798 797 796 796 794 793 792 791 790 789 788 787
775 775 775 775 775 775 775 775 776 776 776 776 776 775 774 773 774 774 775 776 777 778 779 780 782 784 785 787 788 788 789 791 794 796 797 798 799 799 800 800 799 799 799 798 798 798 798 798 798 797 796 796 795 794 793 792 790 790 788 787 786 785 784
773 773 773 773 773 773 773 774 774 774 775 775 775 774 773 773 774 774 775 776 777 779 780 782 783 785 786 787 788 788 789 791 793 795 796 798 799 799 800 800 798 797 797 797 797 796 796 796 795 794 794 793 792 792 791 789 788 787 786 785 784 783 782
771 771 771 771 771 771 771 771 772 772 773 774 773 773 773 774 774 775 776 777 778 780 782 783 784 786 787 788 789 789 790 792 793 795 796 797 797 798 798 798 797 796 796 796 795 795 794 794 793 792 791 791 790 789 789 787 786 785 784 783 782 781 781
769 769 769 769 769 768 768 768 769 770 771 772 772 772 773 774 775 776 778 778 779 781 782 784 786 787 788 789 790 790 791 792 793 794 795 796 796 796 797 797 796 795 794 794 794 793 793 792 791 790 790 789 788 788 787 785 784 783 782 781 780 779 778